| time (UTC) | temp F | wind direction | speed knots | gust knots | rain 1hr in | rain 24hr in | rain mn in | humidity % | barometer mb |
| 20260503225532 | 63 | 68 | 0.9 | 2.6 | 0.00 | 0.00 | 0.00 | 33 | 1050.3 |
| 20260503225027 | 64 | 119 | 0.9 | 5.2 | 0.00 | 0.00 | 0.00 | 36 | 1050.1 |
| 20260503224525 | 64 | 171 | 2.6 | 3.5 | 0.00 | 0.00 | 0.00 | 34 | 1050.1 |
| 20260503224023 | 64 | 144 | 3.5 | 7.0 | 0.00 | 0.00 | 0.00 | 34 | 1050.2 |
| 20260503223520 | 64 | 216 | 4.3 | 7.8 | 0.00 | 0.00 | 0.00 | 35 | 1050.2 |
| 20260503223015 | 64 | 193 | 3.5 | 9.6 | 0.00 | 0.00 | 0.00 | 35 | 1050.1 |
| 20260503222514 | 65 | 144 | 1.7 | 6.1 | 0.00 | 0.00 | 0.00 | 33 | 1050.4 |
| 20260503222012 | 65 | 205 | 1.7 | 1.7 | 0.00 | 0.00 | 0.00 | 35 | 1050.5 |
| 20260503221510 | 64 | 86 | 1.7 | 6.1 | 0.00 | 0.00 | 0.00 | 33 | 1050.6 |
| 20260503221007 | 64 | 145 | 2.6 | 6.1 | 0.00 | 0.00 | 0.00 | 34 | 1050.4 |
| 20260503220503 | 65 | 187 | 3.5 | 5.2 | 0.00 | 0.00 | 0.00 | 31 | 1050.4 |
| 20260503220000 | 65 | 171 | 1.7 | 5.2 | 0.00 | 0.00 | 0.00 | 37 | 1050.6 |
| 20260503215457 | 65 | 266 | 1.7 | 2.6 | 0.00 | 0.00 | 0.00 | 32 | 1051.1 |
| 20260503214954 | 64 | 94 | 3.5 | 6.1 | 0.00 | 0.00 | 0.00 | 34 | 1050.7 |
| 20260503214452 | 64 | 229 | 2.6 | 8.7 | 0.00 | 0.00 | 0.00 | 36 | 1050.9 |
| 20260503213949 | 64 | 184 | 6.1 | 7.0 | 0.00 | 0.00 | 0.00 | 35 | 1050.3 |
| 20260503213447 | 63 | 202 | 6.1 | 7.0 | 0.00 | 0.00 | 0.00 | 35 | 1050.7 |
| 20260503212943 | 65 | 93 | 3.5 | 3.5 | 0.00 | 0.00 | 0.00 | 36 | 1050.5 |
| 20260503212441 | 65 | 186 | 2.6 | 3.5 | 0.00 | 0.00 | 0.00 | 33 | 1050.8 |
| 20260503211938 | 65 | 160 | 2.6 | 6.1 | 0.00 | 0.00 | 0.00 | 31 | 1051.0 |
| 20260503211435 | 64 | 167 | 2.6 | 6.1 | 0.00 | 0.00 | 0.00 | 33 | 1051.1 |
| 20260503210930 | 64 | 179 | 4.3 | 8.7 | 0.00 | 0.00 | 0.00 | 31 | 1051.2 |
| 20260503210427 | 64 | 245 | 7.0 | 9.6 | 0.00 | 0.00 | 0.00 | 34 | 1051.1 |
| 20260503205922 | 64 | 131 | 2.6 | 7.8 | 0.00 | 0.00 | 0.00 | 35 | 1051.0 |
| 20260503205420 | 64 | 75 | 1.7 | 3.5 | 0.00 | 0.00 | 0.00 | 32 | 1051.2 |
| 20260503204916 | 64 | 201 | 0.9 | 7.0 | 0.00 | 0.00 | 0.00 | 31 | 1051.1 |
| 20260503204413 | 64 | 224 | 4.3 | 7.8 | 0.00 | 0.00 | 0.00 | 34 | 1051.3 |
| 20260503203910 | 64 | 43 | 4.3 | 5.2 | 0.00 | 0.00 | 0.00 | 34 | 1051.1 |
| 20260503203408 | 65 | 195 | 1.7 | 7.0 | 0.00 | 0.00 | 0.00 | 31 | 1051.3 |
| 20260503202904 | 64 | 255 | 5.2 | 7.0 | 0.00 | 0.00 | 0.00 | 30 | 1051.5 |
| 20260503202403 | 64 | 244 | 3.5 | 6.1 | 0.00 | 0.00 | 0.00 | 33 | 1051.8 |
| 20260503201901 | 64 | 129 | 1.7 | 2.6 | 0.00 | 0.00 | 0.00 | 32 | 1052.2 |
| 20260503201357 | 64 | 104 | 1.7 | 3.5 | 0.00 | 0.00 | 0.00 | 36 | 1051.9 |
| 20260503200855 | 64 | 103 | 1.7 | 3.5 | 0.00 | 0.00 | 0.00 | 33 | 1052.2 |
| 20260503200350 | 63 | 200 | 5.2 | 7.8 | 0.00 | 0.00 | 0.00 | 34 | 1052.5 |
| 20260503195848 | 63 | 226 | 6.1 | 7.8 | 0.00 | 0.00 | 0.00 | 32 | 1052.5 |
| 20260503195344 | 63 | 217 | 1.7 | 7.8 | 0.00 | 0.00 | 0.00 | 37 | 1052.4 |
| 20260503194842 | 63 | 286 | 5.2 | 8.7 | 0.00 | 0.00 | 0.00 | 32 | 1052.5 |
| 20260503194337 | 64 | 0 | 3.5 | 7.0 | 0.00 | 0.00 | 0.00 | 30 | 1052.6 |
| 20260503193834 | 64 | 149 | 3.5 | 6.1 | 0.00 | 0.00 | 0.00 | 33 | 1052.9 |
| 20260503193330 | 64 | 246 | 1.7 | 5.2 | 0.00 | 0.00 | 0.00 | 37 | 1052.9 |
| 20260503192826 | 63 | 175 | 6.1 | 7.8 | 0.00 | 0.00 | 0.00 | 30 | 1052.9 |
| 20260503192321 | 63 | 256 | 1.7 | 6.1 | 0.00 | 0.00 | 0.00 | 32 | 1053.0 |
| 20260503191818 | 63 | 171 | 4.3 | 6.1 | 0.00 | 0.00 | 0.00 | 34 | 1053.1 |
| 20260503191315 | 63 | 197 | 6.1 | 7.0 | 0.00 | 0.00 | 0.00 | 31 | 1053.2 |
| 20260503190812 | 64 | 205 | 3.5 | 5.2 | 0.00 | 0.00 | 0.00 | 40 | 1053.2 |
| 20260503190309 | 64 | 145 | 3.5 | 6.1 | 0.00 | 0.00 | 0.00 | 34 | 1053.2 |
| 20260503185806 | 63 | 99 | 1.7 | 7.0 | 0.00 | 0.00 | 0.00 | 42 | 1053.4 |
| 20260503185302 | 62 | 72 | 4.3 | 13.9 | 0.00 | 0.00 | 0.00 | 38 | 1053.1 |
| 20260503184801 | 62 | 87 | 7.8 | 13.0 | 0.00 | 0.00 | 0.00 | 32 | 1053.5 |
| 20260503184258 | 63 | 128 | 2.6 | 9.6 | 0.00 | 0.00 | 0.00 | 35 | 1053.5 |
| 20260503183754 | 62 | 126 | 4.3 | 8.7 | 0.00 | 0.00 | 0.00 | 37 | 1053.6 |
| 20260503183252 | 62 | 202 | 1.7 | 3.5 | 0.00 | 0.00 | 0.00 | 36 | 1053.6 |
| 20260503182749 | 62 | 196 | 1.7 | 5.2 | 0.00 | 0.00 | 0.00 | 35 | 1053.7 |
| 20260503182248 | 61 | 258 | 1.7 | 3.5 | 0.00 | 0.00 | 0.00 | 35 | 1053.6 |
| 20260503181744 | 61 | 258 | 2.6 | 5.2 | 0.00 | 0.00 | 0.00 | 39 | 1053.9 |
| 20260503181241 | 61 | 91 | 3.5 | 9.6 | 0.00 | 0.00 | 0.00 | 32 | 1053.7 |
| 20260503180738 | 60 | 210 | 0.9 | 2.6 | 0.00 | 0.00 | 0.00 | 35 | 1053.6 |
| 20260503180236 | 61 | 83 | 3.5 | 8.7 | 0.00 | 0.00 | 0.00 | 32 | 1054.1 |
| 20260503175732 | 61 | 236 | 1.7 | 6.1 | 0.00 | 0.00 | 0.00 | 34 | 1054.3 |
| 20260503175230 | 60 | 110 | 6.1 | 7.8 | 0.00 | 0.00 | 0.00 | 36 | 1054.4 |
| 20260503174726 | 61 | 108 | 5.2 | 11.3 | 0.00 | 0.00 | 0.00 | 34 | 1054.4 |
| 20260503174225 | 62 | 81 | 2.6 | 5.2 | 0.00 | 0.00 | 0.00 | 33 | 1054.5 |
| 20260503173724 | 60 | 166 | 3.5 | 6.1 | 0.00 | 0.00 | 0.00 | 39 | 1054.4 |
| 20260503173221 | 60 | 107 | 3.5 | 7.0 | 0.00 | 0.00 | 0.00 | 34 | 1054.5 |
| 20260503172718 | 60 | 149 | 3.5 | 6.1 | 0.00 | 0.00 | 0.00 | 35 | 1054.6 |
| 20260503172215 | 60 | 53 | 5.2 | 7.0 | 0.00 | 0.00 | 0.00 | 37 | 1054.8 |
| 20260503171711 | 59 | 75 | 4.3 | 6.1 | 0.00 | 0.00 | 0.00 | 33 | 1054.7 |
| 20260503171209 | 60 | 91 | 6.1 | 13.0 | 0.00 | 0.00 | 0.00 | 34 | 1055.0 |
| 20260503170705 | 60 | 99 | 3.5 | 7.0 | 0.00 | 0.00 | 0.00 | 37 | 1054.8 |
| 20260503170202 | 60 | 81 | 4.3 | 7.0 | 0.00 | 0.00 | 0.00 | 33 | 1055.0 |
| 20260503160124 | 58 | 82 | 5.2 | 6.1 | 0.00 | 0.00 | 0.00 | 32 | 1055.9 |
| 20260503150554 | 57 | 260 | 4.3 | 6.1 | 0.00 | 0.00 | 0.00 | 36 | 1056.4 |
| 20260503130943 | 46 | 108 | 2.6 | 5.2 | 0.00 | 0.00 | 0.00 | 69 | 1056.2 |
| 20260503130441 | 45 | 90 | 5.2 | 6.1 | 0.00 | 0.00 | 0.00 | 68 | 1055.9 |
| 20260503110338 | 30 | 301 | 0.0 | 0.0 | 0.00 | 0.00 | 0.00 | 97 | 1055.4 |
| 20260503090229 | 30 | 55 | 0.0 | 0.0 | 0.00 | 0.00 | 0.00 | 96 | 1054.8 |
| 20260503081202 | 31 | 57 | 0.0 | 0.0 | 0.00 | 0.00 | 0.00 | 96 | 1054.7 |
| 20260503080657 | 31 | 57 | 0.0 | 0.0 | 0.00 | 0.00 | 0.00 | 96 | 1054.5 |
| 20260503080155 | 30 | 57 | 0.0 | 0.0 | 0.00 | 0.00 | 0.00 | 95 | 1054.5 |
| 20260503072632 | 31 | 4 | 0.0 | 0.0 | 0.00 | 0.00 | 0.00 | 95 | 1054.3 |
| 20260503072128 | 31 | 4 | 0.0 | 0.0 | 0.00 | 0.00 | 0.00 | 95 | 1054.3 |
| 20260503071625 | 31 | 4 | 0.0 | 0.0 | 0.00 | 0.00 | 0.00 | 95 | 1054.3 |
| 20260503071121 | 32 | 4 | 0.0 | 0.0 | 0.00 | 0.00 | 0.00 | 95 | 1054.3 |
| 20260503070619 | 32 | 4 | 0.0 | 0.0 | 0.00 | 0.00 | 0.00 | 95 | 1054.3 |
| 20260503070117 | 32 | 4 | 0.0 | 0.0 | 0.00 | 0.00 | 0.00 | 95 | 1054.4 |
| 20260503055037 | 33 | 76 | 0.0 | 0.0 | 0.00 | 0.00 | 0.00 | 92 | 1054.4 |
| 20260503054533 | 34 | 76 | 0.0 | 0.0 | 0.00 | 0.00 | 0.00 | 92 | 1054.5 |
| 20260503054031 | 34 | 76 | 0.0 | 0.0 | 0.00 | 0.00 | 0.00 | 93 | 1054.6 |
| 20260503053528 | 34 | 76 | 0.0 | 0.0 | 0.00 | 0.00 | 0.00 | 93 | 1054.5 |
| 20260503053026 | 34 | 76 | 0.0 | 0.0 | 0.00 | 0.00 | 0.00 | 93 | 1054.6 |
| 20260503052523 | 34 | 76 | 0.0 | 0.0 | 0.00 | 0.00 | 0.00 | 93 | 1054.5 |
| 20260503052019 | 34 | 76 | 0.0 | 0.0 | 0.00 | 0.00 | 0.00 | 93 | 1054.7 |
| 20260503051515 | 34 | 76 | 0.0 | 0.0 | 0.00 | 0.00 | 0.00 | 93 | 1054.6 |
| 20260503051013 | 34 | 76 | 0.0 | 0.0 | 0.00 | 0.00 | 0.00 | 93 | 1054.6 |
| 20260503050508 | 34 | 76 | 0.0 | 0.0 | 0.00 | 0.00 | 0.00 | 93 | 1054.5 |
| 20260503050006 | 35 | 76 | 0.0 | 0.0 | 0.00 | 0.00 | 0.00 | 93 | 1054.5 |
| 20260503045503 | 35 | 76 | 0.0 | 0.0 | 0.00 | 0.00 | 0.00 | 93 | 1054.7 |
| 20260503045000 | 35 | 76 | 0.0 | 0.0 | 0.00 | 0.00 | 0.00 | 93 | 1054.6 |
| 20260503044456 | 35 | 76 | 0.0 | 0.0 | 0.00 | 0.00 | 0.00 | 94 | 1054.5 |
| 20260503043954 | 35 | 66 | 0.0 | 0.0 | 0.00 | 0.00 | 0.00 | 94 | 1054.6 |
| 20260503043450 | 35 | 66 | 0.0 | 0.0 | 0.00 | 0.00 | 0.00 | 93 | 1054.6 |
| 20260503042946 | 35 | 66 | 0.0 | 0.0 | 0.00 | 0.00 | 0.00 | 93 | 1054.4 |
| 20260503042443 | 35 | 66 | 0.0 | 0.0 | 0.00 | 0.00 | 0.00 | 93 | 1054.4 |
| 20260503041940 | 36 | 66 | 0.0 | 0.0 | 0.00 | 0.00 | 0.00 | 93 | 1054.4 |
| 20260503041437 | 36 | 66 | 0.0 | 0.0 | 0.00 | 0.00 | 0.00 | 93 | 1054.4 |
| 20260503040934 | 36 | 66 | 0.0 | 0.0 | 0.00 | 0.00 | 0.00 | 93 | 1054.3 |
| 20260503040432 | 37 | 66 | 0.0 | 0.0 | 0.00 | 0.00 | 0.00 | 93 | 1054.3 |
| 20260503035929 | 37 | 66 | 0.0 | 0.0 | 0.00 | 0.00 | 0.00 | 93 | 1054.3 |
| 20260503035425 | 37 | 66 | 0.0 | 0.0 | 0.00 | 0.00 | 0.00 | 93 | 1054.5 |
| 20260503034923 | 37 | 44 | 0.0 | 0.0 | 0.00 | 0.00 | 0.00 | 93 | 1054.5 |
| 20260503034420 | 37 | 269 | 0.0 | 0.0 | 0.00 | 0.00 | 0.00 | 93 | 1054.5 |
| 20260503033917 | 37 | 269 | 0.0 | 0.0 | 0.00 | 0.00 | 0.00 | 93 | 1054.3 |
| 20260503033415 | 37 | 272 | 0.0 | 0.0 | 0.00 | 0.00 | 0.00 | 93 | 1054.2 |
| 20260503032913 | 37 | 272 | 0.0 | 0.0 | 0.00 | 0.00 | 0.00 | 92 | 1054.4 |
| 20260503032411 | 37 | 272 | 0.0 | 0.0 | 0.00 | 0.00 | 0.00 | 92 | 1054.5 |
| 20260503031908 | 37 | 272 | 0.0 | 0.0 | 0.00 | 0.00 | 0.00 | 92 | 1054.1 |
| 20260503031406 | 37 | 16 | 0.0 | 0.0 | 0.00 | 0.00 | 0.00 | 92 | 1054.1 |
| 20260503030902 | 37 | 17 | 0.0 | 0.0 | 0.00 | 0.00 | 0.00 | 91 | 1054.2 |
| 20260503030359 | 38 | 17 | 0.0 | 0.0 | 0.00 | 0.00 | 0.00 | 91 | 1054.1 |
| 20260503025855 | 38 | 17 | 0.0 | 0.0 | 0.00 | 0.00 | 0.00 | 91 | 1054.1 |
| 20260503025352 | 38 | 17 | 0.0 | 0.0 | 0.00 | 0.00 | 0.00 | 91 | 1054.1 |
| 20260503024850 | 38 | 17 | 0.0 | 0.0 | 0.00 | 0.00 | 0.00 | 91 | 1054.2 |
| 20260503024346 | 38 | 17 | 0.0 | 0.0 | 0.00 | 0.00 | 0.00 | 91 | 1054.0 |
| 20260503023843 | 38 | 338 | 0.0 | 0.0 | 0.00 | 0.00 | 0.00 | 90 | 1054.0 |
| 20260503023341 | 38 | 329 | 0.0 | 0.0 | 0.00 | 0.00 | 0.00 | 89 | 1053.8 |
| 20260503022838 | 38 | 347 | 0.0 | 0.0 | 0.00 | 0.00 | 0.00 | 89 | 1053.7 |
| 20260503022337 | 39 | 348 | 0.0 | 0.0 | 0.00 | 0.00 | 0.00 | 88 | 1053.8 |
| 20260503021834 | 39 | 348 | 0.0 | 0.0 | 0.00 | 0.00 | 0.00 | 87 | 1053.6 |
| 20260503021330 | 39 | 348 | 0.0 | 0.0 | 0.00 | 0.00 | 0.00 | 88 | 1053.5 |
| 20260503020828 | 39 | 261 | 0.0 | 0.0 | 0.00 | 0.00 | 0.00 | 88 | 1053.6 |
| 20260503020326 | 40 | 261 | 0.0 | 0.0 | 0.00 | 0.00 | 0.00 | 87 | 1053.4 |
| 20260503015822 | 40 | 259 | 0.0 | 0.0 | 0.00 | 0.00 | 0.00 | 86 | 1053.2 |
| 20260503015319 | 41 | 276 | 0.0 | 0.0 | 0.00 | 0.00 | 0.00 | 84 | 1053.3 |
| 20260503014814 | 41 | 261 | 0.0 | 0.0 | 0.00 | 0.00 | 0.00 | 82 | 1053.3 |
| 20260503014313 | 42 | 89 | 0.0 | 0.0 | 0.00 | 0.00 | 0.00 | 81 | 1053.2 |
| 20260503013810 | 42 | 89 | 0.0 | 0.0 | 0.00 | 0.00 | 0.00 | 79 | 1053.1 |
| 20260503013307 | 42 | 89 | 0.0 | 0.0 | 0.00 | 0.00 | 0.00 | 82 | 1053.0 |
| 20260503012804 | 43 | 88 | 0.0 | 0.0 | 0.00 | 0.00 | 0.00 | 80 | 1052.8 |
| 20260503012302 | 43 | 88 | 0.0 | 0.0 | 0.00 | 0.00 | 0.00 | 79 | 1052.9 |
| 20260503011758 | 43 | 99 | 0.0 | 0.0 | 0.00 | 0.00 | 0.00 | 80 | 1052.9 |
| 20260503011255 | 43 | 114 | 0.0 | 0.0 | 0.00 | 0.00 | 0.00 | 78 | 1052.6 |
| 20260503010751 | 44 | 114 | 0.0 | 0.0 | 0.00 | 0.00 | 0.00 | 78 | 1052.7 |
| 20260503010248 | 45 | 114 | 0.0 | 0.0 | 0.00 | 0.00 | 0.00 | 76 | 1052.7 |
| 20260503005745 | 46 | 114 | 0.0 | 0.0 | 0.00 | 0.00 | 0.00 | 72 | 1052.6 |
| 20260503005243 | 46 | 114 | 0.0 | 0.0 | 0.00 | 0.00 | 0.00 | 68 | 1052.8 |
| 20260503004739 | 47 | 114 | 0.0 | 0.0 | 0.00 | 0.00 | 0.00 | 66 | 1052.5 |
| 20260503004237 | 48 | 78 | 0.0 | 0.0 | 0.00 | 0.00 | 0.00 | 64 | 1052.7 |
| 20260503003734 | 49 | 73 | 0.0 | 0.0 | 0.00 | 0.00 | 0.00 | 60 | 1052.6 |
| 20260503003231 | 50 | 300 | 0.0 | 0.0 | 0.00 | 0.00 | 0.00 | 57 | 1052.5 |
| 20260503002728 | 50 | 300 | 0.0 | 0.9 | 0.00 | 0.00 | 0.00 | 56 | 1052.5 |
| 20260503002224 | 51 | 310 | 0.0 | 1.7 | 0.00 | 0.00 | 0.00 | 53 | 1052.5 |
| 20260503001720 | 51 | 292 | 0.9 | 1.7 | 0.00 | 0.00 | 0.00 | 52 | 1052.0 |
| 20260503001217 | 51 | 273 | 1.7 | 2.6 | 0.00 | 0.00 | 0.00 | 52 | 1052.2 |
| 20260503000715 | 51 | 267 | 3.5 | 3.5 | 0.00 | 0.00 | 0.00 | 51 | 1052.2 |
| 20260503000212 | 51 | 293 | 1.7 | 2.6 | 0.00 | 0.00 | 0.00 | 50 | 1052.0 |
| 20260502235709 | 52 | 289 | 2.6 | 2.6 | 0.00 | 0.00 | 0.00 | 50 | 1051.9 |
| 20260502235207 | 52 | 296 | 2.6 | 2.6 | 0.00 | 0.00 | 0.00 | 49 | 1052.2 |
| 20260502234703 | 52 | 264 | 3.5 | 2.6 | 0.00 | 0.00 | 0.00 | 49 | 1052.1 |
| 20260502234200 | 52 | 314 | 2.6 | 3.5 | 0.00 | 0.00 | 0.00 | 49 | 1052.2 |
| 20260502233656 | 52 | 260 | 1.7 | 6.1 | 0.00 | 0.00 | 0.00 | 50 | 1052.0 |
| 20260502233153 | 52 | 299 | 1.7 | 1.7 | 0.00 | 0.00 | 0.00 | 52 | 1052.1 |
| 20260502232649 | 52 | 267 | 2.6 | 3.5 | 0.00 | 0.00 | 0.00 | 50 | 1052.0 |
| 20260502232147 | 52 | 276 | 3.5 | 6.1 | 0.00 | 0.00 | 0.00 | 48 | 1052.0 |
| 20260502231643 | 54 | 265 | 3.5 | 7.0 | 0.00 | 0.00 | 0.00 | 47 | 1051.7 |
| 20260502231141 | 55 | 305 | 4.3 | 6.1 | 0.00 | 0.00 | 0.00 | 45 | 1051.8 |
| 20260502230639 | 55 | 281 | 3.5 | 7.0 | 0.00 | 0.00 | 0.00 | 46 | 1051.9 |
| 20260502230137 | 55 | 267 | 2.6 | 3.5 | 0.00 | 0.00 | 0.00 | 44 | 1051.8 |